Vorticity
nan nan nan nan nan nan nan nan nan nan nan nan nan nan nan nan nan nan nan nan nan nan nan nan nan nan nan nan nan nan nan nan nan nan nan nan nan nan nan nan nan nan nan
nan 7 6 7 6 6 5 6 7 6 6 6 5 5 5 4 5 5 6 6 7 6 5 5 5 5 5 4 3 4 4 5 6 6 6 2 1 4 4 4 5 7 nan
nan 5 4 8 6 6 5 6 6 7 6 5 6 5 5 5 5 4 5 6 7 6 6 6 6 5 4 3 3 4 4 5 6 6 3 2 6 6 4 4 5 6 nan
nan 5 7 8 5 5 5 6 6 6 5 5 5 5 5 5 5 5 5 6 7 7 7 6 6 5 3 3 4 5 5 4 5 4 3 7 8 5 4 4 4 4 nan
nan 5 9 7 6 5 4 6 7 6 5 5 5 5 5 5 5 4 4 6 6 7 6 6 5 3 3 5 5 4 5 5 4 3 6 6 7 6 4 4 4 4 nan
nan 9 9 7 6 5 4 5 6 6 6 6 6 6 6 6 5 4 5 6 6 6 6 5 4 4 5 5 4 2 3 5 4 4 6 5 7 7 4 3 4 4 nan
nan 7 8 8 6 6 5 5 5 5 5 5 6 6 6 6 5 5 5 6 6 6 6 5 5 5 5 5 3 2 2 2 4 5 5 6 7 7 4 3 4 4 nan
nan 6 9 8 6 6 6 5 5 5 4 4 5 5 6 6 5 5 5 6 6 6 6 5 5 5 5 4 3 2 2 3 5 6 6 7 7 6 5 5 4 4 nan
nan 6 6 6 7 5 5 6 7 6 5 4 5 5 5 6 5 5 5 5 5 6 6 5 5 5 4 4 4 3 3 4 4 8 8 9 8 6 6 5 4 5 nan
nan 8 10 6 4 4 6 6 5 6 7 7 4 4 6 6 5 6 6 5 5 5 5 6 5 5 5 4 4 4 4 6 5 8 9 9 10 6 5 5 5 5 nan
nan 7 6 6 10 9 5 6 7 5 4 6 7 6 5 5 7 6 6 7 6 6 5 5 5 5 6 6 5 5 6 7 7 8 10 10 8 5 5 5 6 6 nan
nan 13 12 9 7 6 9 9 6 5 6 7 7 6 6 7 7 7 8 8 7 6 7 7 7 6 5 6 8 8 8 7 8 7 9 10 8 6 5 5 6 6 nan
nan 5 6 14 11 7 7 7 8 8 7 8 6 6 7 7 7 7 7 7 8 7 7 8 8 8 7 5 6 7 6 7 7 7 9 10 11 10 7 6 6 6 nan
nan 6 7 14 18 10 7 8 7 7 8 8 8 4 4 6 7 7 8 8 6 7 7 7 7 8 8 7 6 6 7 6 6 7 9 10 14 14 9 6 6 6 nan
nan 7 8 10 14 16 12 6 8 7 6 8 11 8 3 6 6 7 7 8 8 7 7 8 7 7 7 8 7 8 6 7 6 6 7 12 14 13 10 7 6 6 nan
nan 7 9 9 9 11 15 12 7 7 7 7 8 12 7 4 7 6 7 7 8 8 8 8 7 7 8 8 7 7 8 8 7 6 6 10 13 13 11 8 7 7 nan
nan 7 7 8 9 10 11 14 12 7 8 7 7 10 10 7 7 7 6 7 8 8 8 7 8 7 7 8 8 7 9 8 7 7 8 8 11 13 12 9 9 8 nan
nan 8 9 9 8 10 13 13 12 10 9 8 9 10 10 7 7 6 7 7 9 8 7 7 8 7 8 7 8 8 8 8 7 8 7 7 7 10 14 12 8 7 nan
nan 6 7 8 9 12 14 14 15 14 10 9 9 8 9 9 7 7 6 7 9 7 8 7 6 8 8 8 7 7 8 7 9 9 7 7 8 8 8 14 15 12 nan
nan 9 9 7 6 13 14 13 15 16 11 10 8 8 8 10 9 6 6 8 8 7 6 8 8 6 7 9 9 9 8 7 8 8 8 9 9 8 8 8 11 17 nan
nan 6 9 8 10 12 11 11 12 8 12 15 12 14 14 9 8 7 6 7 7 8 7 7 8 8 7 8 8 13 11 11 9 8 9 8 7 9 8 8 7 7 nan
nan 6 6 8 10 11 11 12 13 11 11 9 8 7 13 20 21 15 11 9 7 9 9 8 5 5 9 7 4 7 9 12 15 13 11 11 9 10 10 9 7 8 nan
nan 7 6 6 8 8 11 13 13 15 10 6 7 7 5 13 12 14 20 21 14 9 9 8 9 4 3 7 9 0 6 10 5 8 11 11 13 10 10 11 10 10 nan
nan 7 7 7 8 7 9 10 11 12 10 10 9 8 5 6 5 10 12 12 19 22 15 8 8 9 9 4 8 11 6 6 5 6 7 7 10 9 9 9 11 10 nan
nan 10 8 7 7 8 8 9 8 10 10 9 7 8 10 6 5 6 9 11 10 13 15 22 16 10 9 9 5 9 12 7 11 9 6 8 6 8 9 9 9 9 nan
nan nan nan nan nan nan nan nan nan nan nan nan nan nan nan nan nan nan nan nan nan nan nan nan nan nan nan nan nan nan nan nan nan nan nan nan nan nan nan nan nan nan nan
CAPE
567 767 936 944 1072 1123 1156 1266 1354 1496 1682 1764 1697 1680 1647 1643 1807 1891 1913 1910 1942 1995 1626 1536 1612 1533 1249 1140 1130 1385 1341 1288 1261 1262 1021 919 776 488 579 687 642 204 286
658 781 890 918 1012 1109 1153 1280 1347 1456 1621 1674 1619 1597 1627 1703 1785 1790 1849 1872 1742 1832 1572 1450 1282 1088 968 983 1204 1265 1240 1153 1147 1065 1043 711 645 514 556 601 626 520 238
679 794 809 893 1023 1142 1260 1370 1458 1536 1588 1561 1518 1548 1640 1731 1723 1666 1607 1608 1688 1611 1464 1191 1097 959 866 1008 1160 1181 1126 1065 1021 999 606 183 269 423 427 413 458 265 120
702 732 656 888 978 1165 1210 1325 1391 1505 1514 1464 1493 1587 1673 1700 1670 1568 1409 1368 1453 1394 1205 1073 828 843 838 995 962 873 822 726 594 489 212 247 295 379 367 337 196 141 117
695 633 762 805 834 1096 1175 1256 1288 1277 1280 1344 1422 1605 1684 1708 1674 1523 1320 1295 1337 1223 832 1032 951 791 708 624 606 506 404 229 139 26 9 76 155 307 325 296 321 180 125
599 600 645 718 800 1028 1154 1142 1162 1113 1071 1188 1340 1564 1731 1698 1578 1420 1248 1264 1308 1229 925 686 738 575 349 346 380 366 182 28 0 0 0 127 77 322 302 362 345 235 287
623 519 511 665 833 1025 1172 1048 937 887 936 1118 1292 1444 1659 1667 1487 1225 1181 1270 1175 1101 961 629 476 357 268 239 287 169 40 0 0 0 0 6 5 432 288 284 268 259 254
495 519 541 745 860 923 965 758 594 705 848 999 1109 1303 1535 1428 1228 1128 1114 1112 1096 933 744 441 242 219 183 173 140 16 0 0 0 0 0 0 1 427 383 316 247 338 220
544 495 517 605 801 775 624 558 481 603 742 849 962 1106 1199 1087 1005 974 1004 979 935 710 379 194 117 82 85 50 0 0 0 0 0 0 0 0 16 645 484 299 152 162 132
588 458 455 476 533 516 423 492 531 524 644 735 813 901 890 898 886 847 779 852 784 621 368 194 91 55 35 2 0 0 0 0 0 0 0 0 12 553 596 347 120 129 138
409 703 632 426 326 364 358 403 490 588 583 639 714 747 639 415 598 733 601 663 613 454 276 189 97 51 14 0 0 0 0 0 0 0 0 0 37 376 586 623 280 202 170
0 159 518 717 621 366 536 429 261 410 466 434 451 384 210 160 201 448 489 616 522 348 179 107 71 22 0 0 0 0 0 0 0 0 0 0 36 241 586 762 399 289 189
0 0 0 0 709 526 538 417 246 250 287 416 411 198 94 89 92 218 113 230 190 237 32 22 7 0 0 0 0 0 0 0 0 0 0 0 1 238 645 958 666 442 222
0 0 0 0 211 663 618 593 461 390 332 381 402 258 56 12 1 33 14 12 1 5 2 0 0 0 0 0 0 0 0 0 0 0 0 0 0 161 753 1121 1054 708 342
0 0 0 0 0 168 750 774 478 505 361 227 275 260 161 21 1 1 1 1 0 0 0 0 0 0 0 0 0 0 0 0 0 0 0 0 0 14 615 1088 1418 1177 748
0 0 0 0 0 0 14 969 629 453 492 282 250 240 152 108 7 0 0 0 1 0 0 0 0 0 0 0 0 0 0 0 0 0 0 0 0 0 77 647 1287 1521 1287
0 0 0 0 0 0 0 71 794 579 438 383 274 197 209 162 21 0 0 0 0 0 0 1 0 0 0 0 0 0 0 0 0 0 0 0 0 0 0 6 380 1028 1326
0 0 0 0 0 0 0 0 185 853 528 443 307 185 204 210 101 0 0 0 0 0 0 0 0 0 0 0 0 0 0 0 0 0 0 0 0 0 0 0 0 111 687
0 0 0 0 0 0 0 0 0 586 646 492 256 179 175 218 167 42 0 0 0 0 0 0 0 0 0 0 0 0 0 0 0 0 0 0 0 0 0 0 0 0 0
0 0 0 0 0 0 0 0 0 44 402 575 352 247 179 138 182 59 47 2 0 0 0 0 0 0 0 0 0 0 0 0 0 0 0 0 0 0 0 0 0 0 0
0 0 0 0 0 0 0 2 4 6 0 124 315 280 188 116 121 146 88 34 0 0 0 0 0 0 0 0 0 0 0 0 0 0 0 0 0 0 0 0 0 0 0
0 0 0 0 0 0 0 4 4 3 6 0 0 0 4 30 156 242 190 104 18 0 0 0 0 0 0 0 0 0 0 0 0 0 0 0 0 0 0 0 0 0 0
0 0 0 0 0 0 0 3 3 1 3 2 2 4 5 4 1 1 30 191 152 8 10 0 0 0 0 0 0 0 0 0 0 0 0 0 0 0 0 0 0 0 0
0 0 0 0 0 0 0 0 1 8 0 12 13 9 9 1 2 0 6 2 9 75 62 33 0 0 0 0 0 0 0 0 0 0 0 0 0 0 0 0 0 0 0
0 0 0 0 0 0 0 0 0 1 8 14 6 5 8 7 5 3 1 7 4 11 14 58 71 0 0 0 0 0 0 0 0 0 0 0 0 0 0 0 0 0 0
0 0 0 0 0 0 0 0 0 0 0 1 5 10 9 8 7 5 9 8 5 1 7 8 4 26 18 15 3 1 0 0 0 0 0 0 0 4 0 0 0 0 0